Weather History for KW43 - April, 2014

Change the Weather History Date:

Friday, April 4, 2014

  Actual Average (KEFC) Record (KEFC)
Temperature  
Mean Temperature 34 °F -  
Max Temperature 51 °F 56 °F 77 °F (1992)
Min Temperature 17 °F 25 °F 4 °F (1968)
Degree Days  
Heating Degree Days 31    
Moisture  
Dew Point 24 °F    
Average Humidity 64    
Maximum Humidity 93    
Minimum Humidity 37    
Precipitation  
Precipitation 0.00 in - - ()
Sea Level Pressure  
Sea Level Pressure 29.92 in    
Wind  
Wind Speed 7 mph (SSW)    
Max Wind Speed 13 mph    
Max Gust Speed 17 mph    
Visibility 10 miles    
Events      
Averages and records for this station are not official NWS values.
T = Trace of Precipitation, MM = Missing Value Source: NWS Daily Summary

Daily Weather History Graph

Daily Weather History Graph

Search for Another Location

Airport or City:

Trip Planner

Search our weather history database for the weather conditions in past years. The results will help you decide how hot, cold, wet, or windy it might be!

Date:

Astronomy

Apr. 04, 2014 Rise Set
Actual Time 6:33 AM MDT 7:29 PM MDT
Civil Twilight 6:03 AM MDT 7:59 PM MDT
Nautical Twilight 5:28 AM MDT 8:34 PM MDT
Astronomical Twilight 4:51 AM MDT 9:12 PM MDT
Moon 9:43 AM MDT (4/4) No Moon Set
Length of Visible Light 13h 55m
Length of Day
12h 56m
Waxing Crescent, 26% of the Moon is Illuminated
Apr 4
Waxing Crescent
Apr 7
First Quarter
Apr 15
Full
Apr 22
Last Quarter
Apr 29
New

Hourly Weather History & Observations

Time (MDT) Temp. Windchill Dew Point Humidity Pressure Visibility Wind Dir Wind Speed Gust Speed Precip Events Conditions
12:15 AM - - - N/A% 30.05 in 10.0 mi SE 4.6 mph - N/A   Clear
12:35 AM - - - N/A% 30.05 in 10.0 mi South 6.9 mph - N/A   Clear
12:55 AM 23.0 °F 13.9 °F 19.4 °F 86% 30.05 in 10.0 mi South 8.1 mph - N/A   Clear
1:15 AM 21.2 °F 12.6 °F 19.4 °F 93% 30.05 in 10.0 mi South 6.9 mph - N/A   Clear
1:35 AM 21.2 °F 12.6 °F 17.6 °F 86% 30.05 in 10.0 mi South 6.9 mph - N/A   Clear
1:55 AM 21.2 °F 11.7 °F 17.6 °F 86% 30.05 in 10.0 mi South 8.1 mph - N/A   Clear
2:15 AM 21.2 °F 10.9 °F 17.6 °F 86% 30.04 in 10.0 mi South 9.2 mph - N/A   Clear
2:35 AM 19.4 °F 10.4 °F 15.8 °F 86% 30.04 in 10.0 mi SSW 6.9 mph - N/A   Clear
2:55 AM 19.4 °F 9.5 °F 15.8 °F 86% 30.03 in 10.0 mi South 8.1 mph - N/A   Clear
3:15 AM 17.6 °F 6.4 °F 14.0 °F 86% 30.02 in 10.0 mi South 9.2 mph - N/A   Clear
3:35 AM 19.4 °F 9.5 °F 14.0 °F 80% 30.02 in 10.0 mi South 8.1 mph - N/A   Clear
3:55 AM 17.6 °F 9.3 °F 15.8 °F 93% 30.01 in 10.0 mi SSW 5.8 mph - N/A   Clear
4:15 AM 19.4 °F 8.6 °F 15.8 °F 86% 30.01 in 10.0 mi SSW 9.2 mph - N/A   Clear
4:35 AM 19.4 °F 10.4 °F 15.8 °F 86% 30.01 in 10.0 mi South 6.9 mph - N/A   Clear
4:55 AM 19.4 °F 10.4 °F 15.8 °F 86% 30.01 in 10.0 mi SSW 6.9 mph - N/A   Clear
5:15 AM 19.4 °F 11.5 °F 17.6 °F 93% 30.00 in 10.0 mi South 5.8 mph - N/A   Clear
5:35 AM 21.2 °F 13.6 °F 17.6 °F 86% 30.00 in 10.0 mi SW 5.8 mph - N/A   Clear
5:55 AM 19.4 °F 10.4 °F 17.6 °F 93% 30.00 in 10.0 mi SSW 6.9 mph - N/A   Clear
6:15 AM 21.2 °F 14.9 °F 17.6 °F 86% 30.00 in 10.0 mi WSW 4.6 mph - N/A   Clear
6:35 AM 19.4 °F 10.4 °F 17.6 °F 93% 30.00 in 10.0 mi SW 6.9 mph - N/A   Clear
6:55 AM 21.2 °F 12.6 °F 17.6 °F 86% 29.99 in 10.0 mi SSW 6.9 mph - N/A   Clear
7:15 AM 23.0 °F 14.7 °F 19.4 °F 86% 29.98 in 10.0 mi SSW 6.9 mph - N/A   Clear
7:35 AM 24.8 °F 17.9 °F 21.2 °F 86% 29.98 in 10.0 mi SSW 5.8 mph - N/A   Clear
7:55 AM 28.4 °F 24.6 °F 23.0 °F 80% 29.98 in 10.0 mi SW 3.5 mph - N/A   Clear
8:15 AM 30.2 °F - 23.0 °F 75% 29.98 in 10.0 mi Calm Calm - N/A   Clear
8:35 AM 30.2 °F 26.7 °F 23.0 °F 75% 29.97 in 10.0 mi WSW 3.5 mph - N/A   Clear
8:55 AM 33.8 °F 28.6 °F 24.8 °F 70% 29.97 in 10.0 mi SW 5.8 mph - N/A   Clear
9:15 AM 35.6 °F 29.9 °F 24.8 °F 65% 29.97 in 10.0 mi SW 6.9 mph - N/A   Clear
9:35 AM 37.4 °F 32.1 °F 24.8 °F 60% 29.97 in 10.0 mi SW 6.9 mph - N/A   Clear
9:55 AM 39.2 °F 32.0 °F 24.8 °F 56% 29.96 in 10.0 mi SSW 11.5 mph - N/A   Clear
10:15 AM 41.0 °F 36.4 °F 26.6 °F 57% 29.96 in 10.0 mi SSW 6.9 mph - N/A   Clear
10:35 AM 41.0 °F 35.2 °F 24.8 °F 53% 29.96 in 10.0 mi SSW 9.2 mph - N/A   Clear
10:55 AM 41.0 °F 33.9 °F 24.8 °F 53% 29.96 in 10.0 mi SSW 12.7 mph - N/A   Clear
11:15 AM 41.0 °F 35.8 °F 24.8 °F 53% 29.96 in 10.0 mi SW 8.1 mph - N/A   Clear
11:35 AM 42.8 °F 37.0 °F 26.6 °F 53% 29.95 in 10.0 mi SW 10.4 mph 16.1 mph N/A   Clear
11:55 AM 42.8 °F 37.5 °F 26.6 °F 53% 29.95 in 10.0 mi SW 9.2 mph - N/A   Clear
12:15 PM 44.6 °F 40.2 °F 26.6 °F 49% 29.94 in 10.0 mi SSW 8.1 mph - N/A   Clear
12:55 PM 44.6 °F 40.2 °F 26.6 °F 49% 29.92 in 10.0 mi SSW 8.1 mph - N/A   Clear
1:15 PM 46.4 °F 42.4 °F 23.0 °F 40% 29.91 in 10.0 mi SW 8.1 mph - N/A   Clear
1:35 PM 46.4 °F 42.4 °F 24.8 °F 43% 29.90 in 10.0 mi SSW 8.1 mph - N/A   Clear
1:55 PM 46.4 °F 41.1 °F 24.8 °F 43% 29.89 in 10.0 mi SSW 11.5 mph - N/A   Clear
2:15 PM 46.4 °F 40.7 °F 24.8 °F 43% 29.88 in 10.0 mi South 12.7 mph - N/A   Clear
2:35 PM 48.2 °F - 24.8 °F 40% 29.88 in 10.0 mi South 10.4 mph - N/A   Clear
2:55 PM 48.2 °F - 24.8 °F 40% 29.87 in 10.0 mi SSW 9.2 mph 17.3 mph N/A   Clear
3:15 PM 50.0 °F - 26.6 °F 40% 29.86 in 10.0 mi South 6.9 mph - N/A   Clear
3:35 PM 50.0 °F - 28.4 °F 43% 29.85 in 10.0 mi South 8.1 mph - N/A   Clear
3:55 PM 50.0 °F - 28.4 °F 43% 29.84 in 10.0 mi South 8.1 mph - N/A   Clear
4:15 PM 50.0 °F - 28.4 °F 43% 29.84 in 10.0 mi SSW 10.4 mph - N/A   Clear
4:35 PM 50.0 °F - 24.8 °F 37% 29.84 in 10.0 mi South 10.4 mph - N/A   Clear
4:55 PM 51.8 °F - 28.4 °F 41% 29.83 in 10.0 mi South 9.2 mph - N/A   Clear
5:15 PM 50.0 °F - 28.4 °F 43% 29.82 in 10.0 mi South 6.9 mph 10.4 mph N/A   Clear
5:35 PM 50.0 °F - 30.2 °F 47% 29.82 in 10.0 mi South 8.1 mph - N/A   Clear
5:55 PM 51.8 °F - 28.4 °F 41% 29.82 in 10.0 mi South 8.1 mph - N/A   Clear
6:15 PM 48.2 °F - 30.2 °F 50% 29.82 in 10.0 mi South 9.2 mph - N/A   Clear
6:35 PM 44.6 °F 39.7 °F 32.0 °F 61% 29.82 in 10.0 mi SSE 9.2 mph - N/A   Clear
6:55 PM 44.6 °F 40.2 °F 30.2 °F 57% 29.82 in 10.0 mi SSE 8.1 mph - N/A   Clear
7:15 PM 44.6 °F 40.2 °F 30.2 °F 57% 29.82 in 10.0 mi South 8.1 mph - N/A   Clear
7:35 PM 41.0 °F 35.8 °F 30.2 °F 65% 29.81 in 10.0 mi SSE 8.1 mph - N/A   Clear
7:55 PM 41.0 °F 35.8 °F 30.2 °F 65% 29.81 in 10.0 mi SSE 8.1 mph - N/A   Clear
8:15 PM 41.0 °F 34.7 °F 30.2 °F 65% 29.81 in 10.0 mi South 10.4 mph - N/A   Clear
8:35 PM 41.0 °F 33.9 °F 28.4 °F 61% 29.80 in 10.0 mi SSE 12.7 mph - N/A   Clear
8:55 PM 42.8 °F 36.6 °F 28.4 °F 57% 29.80 in 10.0 mi SSE 11.5 mph - N/A   Clear
9:15 PM 42.8 °F 37.0 °F 28.4 °F 57% 29.80 in 10.0 mi South 10.4 mph - N/A   Clear
9:35 PM 39.2 °F 33.6 °F 28.4 °F 65% 29.80 in 10.0 mi SSE 8.1 mph - N/A   Clear
9:55 PM 37.4 °F 31.4 °F 28.4 °F 70% 29.80 in 10.0 mi SSE 8.1 mph - N/A   Clear
10:15 PM 37.4 °F 33.8 °F 26.6 °F 65% 29.80 in 10.0 mi South 4.6 mph - N/A   Clear
10:35 PM 41.0 °F - 24.8 °F 53% 29.80 in 10.0 mi Calm Calm - N/A   Clear
10:55 PM 42.8 °F 41.1 °F 24.8 °F 49% 29.80 in 10.0 mi WSW 3.5 mph - N/A   Clear
11:15 PM 41.0 °F 36.4 °F 26.6 °F 57% 29.79 in 10.0 mi South 6.9 mph - N/A   Clear
11:35 PM 39.2 °F 33.0 °F 26.6 °F 61% 29.79 in 10.0 mi South 9.2 mph - N/A   Clear
11:55 PM 39.2 °F 33.0 °F 26.6 °F 61% 29.79 in 10.0 mi South 9.2 mph - N/A   Clear